TimeEDT,TemperatureF,Dew PointF,Humidity,Sea Level PressureIn,VisibilityMPH,Wind Direction,Wind SpeedMPH,Gust SpeedMPH,PrecipitationIn,Events,Conditions,WindDirDegrees,DateUTC
12:51 AM,48.0,43.0,83,30.04,10.0,NW,5.8,-,N/A,,Mostly Cloudy,320,2013-09-24 04:51:00
1:51 AM,45.0,41.0,86,30.03,10.0,NW,3.5,-,N/A,,Partly Cloudy,310,2013-09-24 05:51:00
2:51 AM,43.0,39.9,89,30.03,10.0,WNW,4.6,-,N/A,,Clear,300,2013-09-24 06:51:00
3:51 AM,43.0,37.9,82,30.02,10.0,NW,6.9,-,N/A,,Clear,310,2013-09-24 07:51:00
4:51 AM,43.0,37.9,82,30.02,10.0,WNW,8.1,-,N/A,,Clear,300,2013-09-24 08:51:00
5:51 AM,42.1,37.9,85,30.01,10.0,WNW,4.6,-,N/A,,Partly Cloudy,290,2013-09-24 09:51:00
6:51 AM,43.0,37.9,82,30.01,10.0,West,6.9,-,N/A,,Partly Cloudy,260,2013-09-24 10:51:00
7:51 AM,46.9,39.0,74,30.00,10.0,WSW,4.6,-,N/A,,Mostly Cloudy,250,2013-09-24 11:51:00
8:51 AM,48.9,39.0,69,29.98,10.0,WSW,3.5,-,N/A,,Scattered Clouds,250,2013-09-24 12:51:00
9:51 AM,53.1,41.0,64,29.97,10.0,North,4.6,-,N/A,,Scattered Clouds,10,2013-09-24 13:51:00
10:51 AM,55.9,41.0,57,29.96,10.0,Calm,Calm,-,N/A,,Partly Cloudy,0,2013-09-24 14:51:00
11:51 AM,62.1,39.9,44,29.91,10.0,NNW,9.2,-,N/A,,Partly Cloudy,340,2013-09-24 15:51:00
12:51 PM,64.9,39.9,40,29.89,10.0,NNW,9.2,-,N/A,,Clear,330,2013-09-24 16:51:00
1:51 PM,68.0,39.0,35,29.87,10.0,NW,11.5,19.6,N/A,,Clear,310,2013-09-24 17:51:00
2:51 PM,69.1,39.9,35,29.86,10.0,NW,12.7,-,N/A,,Partly Cloudy,320,2013-09-24 18:51:00
3:51 PM,70.0,39.0,32,29.85,10.0,NW,9.2,-,N/A,,Partly Cloudy,310,2013-09-24 19:51:00
4:51 PM,68.0,39.0,35,29.85,10.0,NW,10.4,-,N/A,,Partly Cloudy,310,2013-09-24 20:51:00
5:51 PM,64.9,39.9,40,29.86,10.0,NW,8.1,-,N/A,,Clear,320,2013-09-24 21:51:00
6:51 PM,59.0,43.0,55,29.87,10.0,WNW,6.9,-,N/A,,Clear,300,2013-09-24 22:51:00
7:51 PM,55.0,44.1,67,29.90,10.0,NW,6.9,-,N/A,,Clear,320,2013-09-24 23:51:00
8:51 PM,53.1,45.0,74,29.91,10.0,NNW,5.8,-,N/A,,Clear,330,2013-09-25 00:51:00
9:51 PM,52.0,44.1,74,29.92,10.0,NNE,6.9,-,N/A,,Clear,20,2013-09-25 01:51:00
10:51 PM,50.0,45.0,83,29.93,10.0,WNW,5.8,-,N/A,,Clear,300,2013-09-25 02:51:00
11:51 PM,50.0,45.0,83,29.94,10.0,Calm,Calm,-,N/A,,Clear,0,2013-09-25 03:51:00